Location: Dortmund
(51.5019°N, 7.6520°E)
Time: 14:12:14
(UTC+02:00)

ISS - Pass Details

Date: 07 January 2018
Orbit: 402 x 409 km, 51.6° (Epoch: 21 August)

Event Time Altitude Azimuth Distance (km) Brightness Sun altitude
Exits shadow 07:32:44 12° 278° (W) 1,415 -1.7 -9.0°
Maximum altitude 07:35:50 57° 201° (SSW) 506 -3.3 -8.5°
Drops below altitude 10° 07:39:11 10° 121° (ESE) 1,516 0.8 -8.1°
Sets 07:41:19 0° 117° (ESE) 2,382 2.7 -7.8°
